User: anonymous   Login
Location: Unspecified
(0.0000°N, 0.0000°E)
Time: 18:08:10
(UTC+00:00)
Language:

Secor 13 - Orbit

View from above orbital plane
View from above orbital plane
View from above satellite
View from above satellite

Ground track
Ground track

The orbit is defined by the following mean orbital elements,

1 03891U          26133.53805769 +.00000000 +00000-0 +28732-4 0 00008
2 03891  99.6537   6.5217 0039226 337.6354 137.9755 13.42975650    05
Epoch (UTC): 13 May 2026 12:54:48
Eccentricity: 0.0039226
inclination: 99.6537°
perigee height: 1069 km
apogee height: 1128 km
right ascension of ascending node: 6.5217°
argument of perigee: 337.6354°
revolutions per day: 13.42975650
mean anomaly at epoch: 137.9755°

The dashed part of the orbit path shows where the satellite is in the earth's shadow,  

DLR